This is the latest recevied weather packets stored in our database for station/object W4DHW-4. If no packets are shown the sender has not sent any weather packets the latest 1 day(s).
| Time | Temp. | Humidity | Pressure | Rain* | Wind** | Luminosity | Snow |
|---|---|---|---|---|---|---|---|
| 1778033013 | 22.22° C | 43% | 1012.9 hPa | 0 mm | 1.34 m/s, 246° | 0 W/m² | - |
| 1778032710 | 22.22° C | 43% | 1012.9 hPa | 0 mm | 1.34 m/s, 184° | 0 W/m² | - |
| 1778032408 | 22.22° C | 42% | 1012.7 hPa | 0 mm | 1.34 m/s, 207° | 0 W/m² | - |
| 1778032104 | 22.22° C | 43% | 1012.5 hPa | 0 mm | 0.89 m/s, 136° | 0 W/m² | - |
| 1778031801 | 22.22° C | 43% | 1012.8 hPa | 0 mm | 0.89 m/s, 259° | 0 W/m² | - |
| 1778031498 | 21.67° C | 43% | 1012.6 hPa | 0 mm | 0.45 m/s, 219° | 0 W/m² | - |
| 1778031195 | 21.67° C | 42% | 1012.6 hPa | 0 mm | 1.79 m/s, 253° | 0 W/m² | - |
| 1778030892 | 21.67° C | 42% | 1012.4 hPa | 0 mm | 0.45 m/s, 210° | 0 W/m² | - |
| 1778030589 | 22.22° C | 41% | 1012.6 hPa | 0 mm | 2.24 m/s, 125° | 0 W/m² | - |
| 1778030286 | 22.22° C | 41% | 1012.5 hPa | 0 mm | 0.89 m/s, 232° | 0 W/m² | - |
| 1778029982 | 22.22° C | 41% | 1012.9 hPa | 0 mm | 0.45 m/s, 257° | 0 W/m² | - |
| 1778029680 | 22.22° C | 40% | 1012.4 hPa | 0 mm | 2.24 m/s, 175° | 0 W/m² | - |
| 1778029378 | 22.22° C | 40% | 1012.4 hPa | 0 mm | 0.45 m/s, 255° | 0 W/m² | - |
| 1778029074 | 22.22° C | 40% | 1012.5 hPa | 0 mm | 1.34 m/s, 244° | 0 W/m² | - |
| 1778028771 | 22.78° C | 40% | 1012.6 hPa | 0 mm | 0.45 m/s, 244° | 0 W/m² | - |
| 1778028467 | 22.78° C | 39% | 1012.6 hPa | 0 mm | 1.34 m/s, 214° | 0 W/m² | - |
| 1778028165 | 22.78° C | 39% | 1012.5 hPa | 0 mm | 3.58 m/s, 185° | 0 W/m² | - |
| 1778027860 | 22.78° C | 38% | 1012.5 hPa | 0 mm | 2.24 m/s, 212° | 0 W/m² | - |
| 1778027557 | 22.78° C | 38% | 1012.6 hPa | 0 mm | 3.13 m/s, 253° | 0 W/m² | - |
| 1778027254 | 22.78° C | 38% | 1012.6 hPa | 0 mm | 3.58 m/s, 221° | 0 W/m² | - |
| 1778026950 | 23.33° C | 38% | 1012.4 hPa | 0 mm | 2.68 m/s, 219° | 0 W/m² | - |
| 1778026646 | 23.33° C | 37% | 1012.3 hPa | 0 mm | 2.24 m/s, 136° | 0 W/m² | - |
| 1778026344 | 23.33° C | 38% | 1012.3 hPa | 0 mm | 2.24 m/s, 191° | 2 W/m² | - |
| 1778026040 | 23.33° C | 38% | 1011.9 hPa | 0 mm | 0.89 m/s, 215° | 3 W/m² | - |
| 1778025738 | 23.33° C | 38% | 1011.8 hPa | 0 mm | 2.24 m/s, 259° | 5 W/m² | - |
* Rain latest hour (hover to see other rain measurements)
** Current wind speed in m/s (hover to see current wind gust speed)